| time (UTC) | temp F | wind direction | speed MPH | gust MPH | rain 1hr in | rain 24hr in | rain mn in | humidity % | barometer mb |
| 20260503212802 | 43 | 298 | 1.0 | 2.0 | 0.00 | 0.00 | 0.00 | 80 | 1006.9 |
| 20260503212304 | 43 | 339 | 1.0 | 2.0 | 0.00 | 0.00 | 0.00 | 80 | 1006.9 |
| 20260503211802 | 43 | 40 | 0.0 | 1.0 | 0.00 | 0.00 | 0.00 | 79 | 1006.9 |
| 20260503211303 | 43 | 12 | 0.0 | 1.0 | 0.00 | 0.00 | 0.00 | 79 | 1006.9 |
| 20260503210303 | 43 | 34 | 0.0 | 1.0 | 0.00 | 0.00 | 0.00 | 79 | 1006.9 |
| 20260503205803 | 43 | 34 | 0.0 | 0.0 | 0.00 | 0.00 | 0.00 | 79 | 1007.1 |
| 20260503205304 | 43 | 34 | 0.0 | 2.0 | 0.00 | 0.00 | 0.00 | 79 | 1007.1 |
| 20260503204802 | 43 | 34 | 1.0 | 2.0 | 0.00 | 0.00 | 0.00 | 79 | 1007.1 |
| 20260503204303 | 43 | 34 | 0.0 | 1.0 | 0.00 | 0.00 | 0.00 | 79 | 1007.1 |
| 20260503203802 | 43 | 34 | 0.0 | 1.0 | 0.00 | 0.00 | 0.00 | 79 | 1007.1 |
| 20260503203303 | 43 | 34 | 0.0 | 0.0 | 0.00 | 0.00 | 0.00 | 79 | 1007.1 |
| 20260503202304 | 43 | 34 | 0.0 | 1.0 | 0.00 | 0.00 | 0.00 | 79 | 1007.1 |
| 20260503201803 | 43 | 34 | 0.0 | 1.0 | 0.00 | 0.00 | 0.00 | 79 | 1007.1 |
| 20260503200803 | 43 | 34 | 0.0 | 0.0 | 0.00 | 0.00 | 0.00 | 79 | 1007.1 |
| 20260503200303 | 43 | 34 | 0.0 | 0.0 | 0.00 | 0.00 | 0.00 | 78 | 1007.2 |
| 20260503195304 | 43 | 34 | 0.0 | 0.0 | 0.00 | 0.00 | 0.00 | 79 | 1007.2 |
| 20260503194803 | 43 | 34 | 0.0 | 0.0 | 0.00 | 0.00 | 0.00 | 79 | 1007.3 |
| 20260503194302 | 43 | 34 | 0.0 | 1.0 | 0.00 | 0.00 | 0.00 | 79 | 1007.3 |
| 20260503193803 | 43 | 34 | 0.0 | 0.0 | 0.00 | 0.00 | 0.00 | 79 | 1007.3 |
| 20260503192803 | 43 | 34 | 0.0 | 0.0 | 0.00 | 0.00 | 0.00 | 78 | 1007.3 |
| 20260503192305 | 43 | 34 | 0.0 | 0.0 | 0.00 | 0.00 | 0.00 | 79 | 1007.3 |
| 20260503191803 | 43 | 34 | 0.0 | 1.0 | 0.00 | 0.00 | 0.00 | 79 | 1007.3 |
| 20260503190803 | 43 | 25 | 0.0 | 1.0 | 0.00 | 0.00 | 0.00 | 78 | 1007.3 |
| 20260503190303 | 43 | 25 | 0.0 | 1.0 | 0.00 | 0.00 | 0.00 | 78 | 1007.3 |
| 20260503185803 | 43 | 25 | 0.0 | 2.0 | 0.00 | 0.00 | 0.00 | 78 | 1007.3 |
| 20260503185304 | 43 | 12 | 1.0 | 2.0 | 0.00 | 0.00 | 0.00 | 77 | 1007.3 |
| 20260503184803 | 43 | 5 | 0.0 | 2.0 | 0.00 | 0.00 | 0.00 | 77 | 1007.2 |
| 20260503184303 | 43 | 344 | 1.0 | 2.0 | 0.00 | 0.00 | 0.00 | 77 | 1007.2 |
| 20260503183802 | 43 | 5 | 1.0 | 3.0 | 0.00 | 0.00 | 0.00 | 77 | 1007.2 |
| 20260503183303 | 44 | 24 | 1.0 | 3.0 | 0.00 | 0.00 | 0.00 | 77 | 1007.2 |
| 20260503182803 | 44 | 13 | 1.0 | 3.0 | 0.00 | 0.00 | 0.00 | 77 | 1007.2 |
| 20260503182305 | 44 | 53 | 2.0 | 3.0 | 0.00 | 0.00 | 0.00 | 77 | 1007.2 |
| 20260503181803 | 44 | 38 | 2.0 | 3.0 | 0.00 | 0.00 | 0.00 | 77 | 1007.2 |
| 20260503181303 | 44 | 6 | 1.0 | 3.0 | 0.00 | 0.00 | 0.00 | 78 | 1007.2 |
| 20260503180803 | 44 | 8 | 2.0 | 3.0 | 0.00 | 0.00 | 0.00 | 78 | 1007.2 |
| 20260503180303 | 44 | 21 | 1.0 | 3.0 | 0.00 | 0.00 | 0.00 | 78 | 1007.2 |
| 20260503175802 | 44 | 36 | 2.0 | 5.0 | 0.00 | 0.00 | 0.00 | 78 | 1007.2 |
| 20260503175304 | 44 | 15 | 1.0 | 3.0 | 0.00 | 0.00 | 0.00 | 78 | 1007.2 |
| 20260503174803 | 44 | 16 | 2.0 | 5.0 | 0.00 | 0.00 | 0.00 | 78 | 1007.3 |
| 20260503174303 | 44 | 16 | 1.0 | 3.0 | 0.00 | 0.00 | 0.00 | 77 | 1007.3 |
| 20260503173803 | 44 | 23 | 1.0 | 3.0 | 0.00 | 0.00 | 0.00 | 77 | 1007.3 |
| 20260503173303 | 44 | 25 | 2.0 | 7.0 | 0.00 | 0.00 | 0.00 | 77 | 1007.3 |
| 20260503172803 | 44 | 23 | 2.0 | 5.0 | 0.00 | 0.00 | 0.00 | 77 | 1007.3 |
| 20260503172305 | 44 | 10 | 2.0 | 3.0 | 0.00 | 0.00 | 0.00 | 77 | 1007.3 |
| 20260503171803 | 44 | 47 | 2.0 | 5.0 | 0.00 | 0.00 | 0.00 | 77 | 1007.3 |
| 20260503171303 | 44 | 27 | 2.0 | 3.0 | 0.00 | 0.00 | 0.00 | 77 | 1007.3 |
| 20260503170803 | 44 | 180 | 1.0 | 2.0 | 0.00 | 0.00 | 0.00 | 77 | 1007.3 |
| 20260503150803 | 44 | 21 | 1.0 | 5.0 | 0.00 | 0.00 | 0.00 | 83 | 1008.4 |
| 20260503150303 | 44 | 11 | 3.0 | 6.0 | 0.00 | 0.00 | 0.00 | 83 | 1008.4 |
| 20260503140303 | 45 | 324 | 2.0 | 3.0 | 0.00 | 0.00 | 0.00 | 84 | 1008.5 |
| 20260503110803 | 45 | 31 | 2.0 | 5.0 | 0.00 | 0.00 | 0.00 | 76 | 1008.6 |
| 20260503110303 | 45 | 21 | 3.0 | 6.0 | 0.00 | 0.00 | 0.00 | 76 | 1008.6 |
| 20260503090303 | 45 | 37 | 3.0 | 6.0 | 0.00 | 0.00 | 0.00 | 75 | 1008.4 |
| 20260503080804 | 45 | 30 | 3.0 | 8.0 | 0.00 | 0.00 | 0.00 | 77 | 1007.9 |
| 20260503080304 | 46 | 21 | 3.0 | 8.0 | 0.00 | 0.00 | 0.00 | 77 | 1007.9 |
| 20260503072803 | 45 | 36 | 3.0 | 6.0 | 0.00 | 0.00 | 0.00 | 80 | 1007.8 |
| 20260503072305 | 45 | 7 | 3.0 | 5.0 | 0.00 | 0.00 | 0.00 | 80 | 1007.9 |
| 20260503071803 | 45 | 28 | 3.0 | 8.0 | 0.00 | 0.00 | 0.00 | 81 | 1007.9 |
| 20260503070803 | 45 | 347 | 2.0 | 6.0 | 0.00 | 0.00 | 0.00 | 82 | 1007.9 |
| 20260503070303 | 45 | 351 | 2.0 | 5.0 | 0.00 | 0.00 | 0.00 | 82 | 1007.6 |
| 20260503054303 | 45 | 349 | 3.0 | 7.0 | 0.00 | 0.00 | 0.00 | 85 | 1007.3 |
| 20260503053803 | 45 | 28 | 2.0 | 5.0 | 0.00 | 0.00 | 0.00 | 85 | 1007.3 |
| 20260503053303 | 45 | 356 | 2.0 | 5.0 | 0.00 | 0.00 | 0.00 | 85 | 1007.3 |
| 20260503052803 | 45 | 15 | 3.0 | 8.0 | 0.00 | 0.00 | 0.00 | 85 | 1007.3 |
| 20260503052305 | 45 | 19 | 3.0 | 6.0 | 0.00 | 0.00 | 0.00 | 85 | 1007.3 |
| 20260503051803 | 45 | 23 | 3.0 | 10.0 | 0.00 | 0.00 | 0.00 | 85 | 1006.0 |
| 20260503051303 | 45 | 347 | 3.0 | 8.0 | 0.00 | 0.00 | 0.00 | 84 | 1006.0 |
| 20260503050803 | 45 | 12 | 4.0 | 10.0 | 0.00 | 0.00 | 0.00 | 84 | 1006.0 |
| 20260503050303 | 45 | 17 | 2.0 | 3.0 | 0.00 | 0.00 | 0.00 | 85 | 1006.0 |
| 20260503045803 | 45 | 23 | 3.0 | 8.0 | 0.00 | 0.00 | 0.00 | 85 | 1006.0 |
| 20260503045305 | 45 | 25 | 2.0 | 3.0 | 0.00 | 0.00 | 0.00 | 84 | 1006.0 |
| 20260503044803 | 45 | 334 | 2.0 | 5.0 | 0.00 | 0.00 | 0.00 | 84 | 1006.0 |
| 20260503044304 | 45 | 20 | 3.0 | 6.0 | 0.00 | 0.00 | 0.00 | 84 | 1006.0 |
| 20260503043303 | 46 | 11 | 4.0 | 10.0 | 0.00 | 0.00 | 0.00 | 83 | 1006.0 |
| 20260503042804 | 46 | 14 | 3.0 | 7.0 | 0.00 | 0.00 | 0.00 | 83 | 1006.0 |
| 20260503042305 | 46 | 12 | 2.0 | 7.0 | 0.00 | 0.00 | 0.00 | 83 | 1006.0 |
| 20260503041304 | 47 | 1 | 2.0 | 9.0 | 0.00 | 0.00 | 0.00 | 83 | 1006.0 |
| 20260503040803 | 47 | 359 | 3.0 | 8.0 | 0.00 | 0.00 | 0.00 | 83 | 1006.0 |
| 20260503040303 | 48 | 340 | 3.0 | 8.0 | 0.00 | 0.00 | 0.00 | 84 | 1006.0 |
| 20260503035803 | 48 | 358 | 3.0 | 9.0 | 0.00 | 0.00 | 0.00 | 84 | 1006.0 |
| 20260503035305 | 48 | 11 | 3.0 | 7.0 | 0.00 | 0.00 | 0.00 | 83 | 1006.0 |
| 20260503034303 | 49 | 18 | 5.0 | 12.0 | 0.00 | 0.00 | 0.00 | 82 | 1006.0 |
| 20260503033803 | 49 | 9 | 5.0 | 9.0 | 0.00 | 0.00 | 0.00 | 81 | 1006.0 |
| 20260503033304 | 50 | 16 | 2.0 | 5.0 | 0.00 | 0.00 | 0.00 | 80 | 1005.4 |
| 20260503032803 | 50 | 21 | 5.0 | 10.0 | 0.00 | 0.00 | 0.00 | 79 | 1005.4 |
| 20260503032304 | 50 | 19 | 2.0 | 5.0 | 0.00 | 0.00 | 0.00 | 79 | 1005.4 |
| 20260503031303 | 50 | 2 | 1.0 | 3.0 | 0.00 | 0.00 | 0.00 | 80 | 1005.4 |
| 20260503030803 | 50 | 21 | 1.0 | 2.0 | 0.00 | 0.00 | 0.00 | 81 | 1005.4 |
| 20260503030304 | 50 | 355 | 0.0 | 1.0 | 0.00 | 0.00 | 0.00 | 81 | 1005.4 |
| 20260503025804 | 51 | 344 | 0.0 | 2.0 | 0.00 | 0.00 | 0.00 | 80 | 1005.4 |
| 20260503024304 | 51 | 5 | 0.0 | 1.0 | 0.00 | 0.00 | 0.00 | 79 | 1005.4 |
| 20260503023303 | 52 | 9 | 0.0 | 0.0 | 0.00 | 0.00 | 0.00 | 77 | 1005.4 |
| 20260503022803 | 52 | 9 | 0.0 | 0.0 | 0.00 | 0.00 | 0.00 | 76 | 1005.4 |
| 20260503022305 | 52 | 9 | 0.0 | 1.0 | 0.00 | 0.00 | 0.00 | 75 | 1005.4 |
| 20260503021803 | 53 | 9 | 0.0 | 0.0 | 0.00 | 0.00 | 0.00 | 73 | 1005.4 |
| 20260503021303 | 53 | 9 | 0.0 | 1.0 | 0.00 | 0.00 | 0.00 | 72 | 1005.4 |
| 20260503020804 | 53 | 9 | 1.0 | 1.0 | 0.00 | 0.00 | 0.00 | 71 | 1004.8 |
| 20260503015803 | 53 | 9 | 0.0 | 1.0 | 0.00 | 0.00 | 0.00 | 70 | 1004.8 |
| 20260503015305 | 53 | 9 | 0.0 | 1.0 | 0.00 | 0.00 | 0.00 | 68 | 1004.8 |
| 20260503014804 | 53 | 9 | 0.0 | 1.0 | 0.00 | 0.00 | 0.00 | 68 | 1004.8 |
| 20260503014303 | 53 | 9 | 0.0 | 1.0 | 0.00 | 0.00 | 0.00 | 67 | 1004.8 |
| 20260503013803 | 53 | 9 | 0.0 | 1.0 | 0.00 | 0.00 | 0.00 | 67 | 1004.8 |
| 20260503013303 | 53 | 9 | 0.0 | 1.0 | 0.00 | 0.00 | 0.00 | 67 | 1004.8 |
| 20260503012804 | 53 | 359 | 0.0 | 2.0 | 0.00 | 0.00 | 0.00 | 67 | 1004.8 |
| 20260503012305 | 53 | 330 | 0.0 | 0.0 | 0.00 | 0.00 | 0.00 | 66 | 1004.8 |
| 20260503011804 | 53 | 330 | 0.0 | 1.0 | 0.00 | 0.00 | 0.00 | 66 | 1004.8 |
| 20260503010804 | 54 | 55 | 0.0 | 0.0 | 0.00 | 0.00 | 0.00 | 66 | 1004.8 |
| 20260503010303 | 54 | 55 | 0.0 | 0.0 | 0.00 | 0.00 | 0.00 | 66 | 1004.8 |
| 20260503005804 | 54 | 55 | 0.0 | 0.0 | 0.00 | 0.00 | 0.00 | 66 | 1004.8 |
| 20260503005304 | 54 | 55 | 0.0 | 1.0 | 0.00 | 0.00 | 0.00 | 66 | 1004.8 |
| 20260503004804 | 55 | 319 | 0.0 | 0.0 | 0.00 | 0.00 | 0.00 | 65 | 1004.8 |
| 20260503004303 | 55 | 319 | 0.0 | 0.0 | 0.00 | 0.00 | 0.00 | 65 | 1004.8 |
| 20260503003804 | 55 | 319 | 0.0 | 0.0 | 0.00 | 0.00 | 0.00 | 64 | 1004.8 |
| 20260503003304 | 56 | 319 | 0.0 | 0.0 | 0.00 | 0.00 | 0.00 | 65 | 1004.8 |
| 20260503002305 | 57 | 319 | 0.0 | 1.0 | 0.00 | 0.00 | 0.00 | 63 | 1004.8 |
| 20260503000304 | 58 | 0 | 1.0 | 3.0 | 0.00 | 0.00 | 0.00 | 61 | 1004.8 |
| 20260502235804 | 59 | 240 | 0.0 | 1.0 | 0.00 | 0.00 | 0.00 | 59 | 1004.8 |
| 20260502235304 | 59 | 212 | 1.0 | 3.0 | 0.00 | 0.00 | 0.00 | 58 | 1004.8 |
| 20260502234803 | 59 | 202 | 0.0 | 3.0 | 0.00 | 0.00 | 0.00 | 58 | 1004.8 |
| 20260502234303 | 59 | 243 | 1.0 | 3.0 | 0.00 | 0.00 | 0.00 | 57 | 1004.8 |
| 20260502233804 | 59 | 250 | 1.0 | 3.0 | 0.00 | 0.00 | 0.00 | 57 | 1005.4 |
| 20260502233304 | 59 | 237 | 1.0 | 3.0 | 0.00 | 0.00 | 0.00 | 56 | 1005.4 |
| 20260502231803 | 60 | 241 | 1.0 | 2.0 | 0.00 | 0.00 | 0.00 | 55 | 1005.4 |
| 20260502231303 | 60 | 267 | 1.0 | 3.0 | 0.00 | 0.00 | 0.00 | 55 | 1005.4 |
| 20260502230304 | 60 | 226 | 0.0 | 2.0 | 0.00 | 0.00 | 0.00 | 55 | 1005.4 |
| 20260502225804 | 60 | 222 | 1.0 | 3.0 | 0.00 | 0.00 | 0.00 | 55 | 1005.4 |
| 20260502225304 | 61 | 180 | 1.0 | 5.0 | 0.00 | 0.00 | 0.00 | 55 | 1005.4 |
| 20260502224803 | 61 | 172 | 1.0 | 2.0 | 0.00 | 0.00 | 0.00 | 55 | 1005.4 |
| 20260502224304 | 61 | 164 | 1.0 | 3.0 | 0.00 | 0.00 | 0.00 | 55 | 1005.4 |
| 20260502223804 | 61 | 169 | 0.0 | 3.0 | 0.00 | 0.00 | 0.00 | 55 | 1005.4 |
| 20260502223304 | 61 | 167 | 1.0 | 5.0 | 0.00 | 0.00 | 0.00 | 55 | 1005.4 |
| 20260502222803 | 61 | 193 | 1.0 | 5.0 | 0.00 | 0.00 | 0.00 | 55 | 1005.4 |
| 20260502220816 | 61 | 208 | 1.0 | 5.0 | 0.00 | 0.00 | 0.00 | 54 | 1005.4 |
| 20260502220304 | 62 | 199 | 1.0 | 3.0 | 0.00 | 0.00 | 0.00 | 54 | 1005.4 |
| 20260502215802 | 62 | 157 | 1.0 | 8.0 | 0.00 | 0.00 | 0.00 | 54 | 1005.4 |
| 20260502213301 | 61 | 216 | 2.0 | 6.0 | 0.00 | 0.00 | 0.00 | 57 | 1005.4 |